Location: Unspecified
(0.0000°N, 0.0000°E)
Time: 03:20:28
(UTC+00:00)

Courier 1B Rocket - Pass Details

Date: 22 October 2021
Orbit: 920 x 1202 km, 28.3° (Epoch: 27 November)

Event Time Altitude Azimuth Distance (km) Brightness Sun altitude
Exits shadow 03:16:16 14° 190° (S) 2,746 7.3 -36.3°
Drops below altitude 10° 03:19:00 10° 169° (SSE) 3,082 7.8 -35.6°
Sets 03:23:30 0° 146° (SE) 4,079 8.8 -34.5°
